Location: ????????
(48.4751°N, 37.6926°E)
Time: 13:31:25
(UTC+00:00)

Cosmos 1626 Rocket - Pass Details

Date: 20 January 2021
Orbit: 603 x 631 km, 82.5° (Epoch: 27 February)

Event Time Altitude Azimuth Distance (km) Brightness Sun altitude
Rises 16:08:53 0° 180° (S) 2,866 7.1 -19.4°
Reaches altitude 10° 16:11:05 10° 177° (S) 1,971 6.2 -19.8°
Maximum altitude 16:15:24 65° 96° (E) 684 3.4 -20.5°
Enters shadow 16:16:52 40° 30° (NNE) 929 4.1 -20.8°
